DW3039 Karjalohja FI current weather conditions

sailwx.info

Wind from 345

Air temperature 17.2° C
Dewpoint 12.9° C

Last reported at 2019-Jul-20 22:04 UTC.
Time now 2019-Jul-20 22:29 UTC

Location: N 60°16' E 023°41'.
View on Google Maps.

See reports from other nearby stations

  
Tides and Currents Weather Stations Pressure Air Temp Water Temp Dewpoint Dewpoint Depression Visibility Wind Speed Wind Dir Waves Ship Positions
date/time (UTC)wind fromknots sea level pressurealtimeterstation pressurevisibilityair tempwater tempwave heightnotes
2019-Jul-20 22:04 345 17.2
2019-Jul-20 21:54 345 17.2
2019-Jul-20 21:44 345 17.2
2019-Jul-20 21:34 345 17.2
2019-Jul-20 21:24 345 17.2
2019-Jul-20 21:14 345 17.8
2019-Jul-20 21:04 345 17.8
2019-Jul-20 20:53 345 17.8
2019-Jul-20 20:43 345 18.3
2019-Jul-20 20:33 345 18.3
2019-Jul-20 20:23 345 18.9
2019-Jul-20 20:13 345 18.9
2019-Jul-20 20:03 345 18.9
2019-Jul-20 19:53 345 19.4
2019-Jul-20 19:43 345 19.4
2019-Jul-20 19:33 345 20.0
2019-Jul-20 19:23 345 20.6
2019-Jul-20 19:13 345 20.6
2019-Jul-20 19:03 345 21.1
2019-Jul-20 18:53 345 21.1
2019-Jul-20 18:43 345 21.7
2019-Jul-20 18:33 345 22.2
2019-Jul-20 18:23 345 22.2
2019-Jul-20 18:13 345 22.8
2019-Jul-20 18:03 345 22.8
2019-Jul-20 17:53 345 22.8
2019-Jul-20 17:43 323 23.3
2019-Jul-20 17:33 353 0 gusting 3 23.3
2019-Jul-20 17:23 008 2 gusting 6 23.3
2019-Jul-20 17:13 013 1 gusting 5 23.3
2019-Jul-20 17:03 011 1 gusting 6 23.3
2019-Jul-20 16:53 354 23.3
2019-Jul-20 16:43 009 23.3
2019-Jul-20 16:33 010 2 gusting 7 23.3
2019-Jul-20 16:23 284 1 gusting 5 23.9
2019-Jul-20 16:13 033 2 gusting 6 23.3
2019-Jul-20 16:03 029 4 gusting 7 23.3
2019-Jul-20 15:53 244 0 gusting 4 23.3
2019-Jul-20 15:43 321 1 gusting 6 23.3
2019-Jul-20 15:33 279 23.9
2019-Jul-20 15:23 008 1 gusting 7 23.9
2019-Jul-20 15:13 018 1 gusting 9 23.9
2019-Jul-20 15:03 006 3 gusting 7 23.9
2019-Jul-20 14:53 009 3 gusting 7 23.9
2019-Jul-20 14:43 017 3 gusting 6 23.9
2019-Jul-20 14:33 277 2 gusting 7 23.9
2019-Jul-20 14:23 346 2 gusting 7 23.9
2019-Jul-20 14:13 007 3 gusting 6 23.9
2019-Jul-20 14:03 017 2 gusting 9 23.9
2019-Jul-20 13:53 018 2 gusting 6 23.3
2019-Jul-20 13:43 001 3 gusting 7 23.3
2019-Jul-20 13:33 001 0 gusting 6 23.3
2019-Jul-20 13:23 304 1 gusting 6 23.3
2019-Jul-20 13:13 306 0 gusting 6 23.3
2019-Jul-20 13:03 278 3 gusting 8 23.3
2019-Jul-20 12:53 306 2 gusting 7 23.3
2019-Jul-20 12:43 282 4 gusting 6 23.3
2019-Jul-20 12:33 359 3 gusting 9 23.3
2019-Jul-20 12:23 014 4 gusting 8 23.3
2019-Jul-20 12:13 020 1 gusting 6 23.3
2019-Jul-20 12:03 041 2 gusting 7 23.3
2019-Jul-20 11:53 004 1 gusting 5 23.3
2019-Jul-20 11:43 354 2 gusting 8 22.8
2019-Jul-20 11:32 003 1 gusting 8 22.8
2019-Jul-20 11:22 346 2 gusting 6 22.8
2019-Jul-20 11:12 031 3 gusting 9 22.8
2019-Jul-20 11:02 010 1 gusting 8 22.8
2019-Jul-20 10:52 116 3 gusting 6 22.8
2019-Jul-20 10:42 037 4 gusting 7 22.2
2019-Jul-20 10:32 281 2 gusting 6 22.2
2019-Jul-20 10:22 014 3 gusting 8 22.2
2019-Jul-20 10:12 048 1 gusting 6 22.2
2019-Jul-20 10:02 358 2 gusting 8 22.2
2019-Jul-20 09:52 065 3 gusting 7 22.2
2019-Jul-20 09:42 058 2 gusting 5 22.2
2019-Jul-20 09:32 356 1 gusting 5 22.2
2019-Jul-20 09:22 341 3 gusting 7 22.2
2019-Jul-20 09:12 014 2 gusting 6 21.7
2019-Jul-20 09:02 288 1 gusting 7 21.7
2019-Jul-20 08:52 299 1 gusting 6 21.7
2019-Jul-20 08:42 285 3 gusting 8 22.2
2019-Jul-20 08:32 277 4 gusting 10 22.2
2019-Jul-20 08:22 078 0 gusting 7 22.2
2019-Jul-20 08:12 335 0 gusting 7 21.7
2019-Jul-20 08:02 356 3 gusting 5 21.7
2019-Jul-20 07:52 315 0 gusting 6 21.7
2019-Jul-20 07:42 033 3 gusting 6 21.7
2019-Jul-20 07:32 049 4 gusting 6 21.1
2019-Jul-20 07:22 275 0 gusting 6 21.1
2019-Jul-20 07:12 080 0 gusting 5 20.6
2019-Jul-20 07:02 066 20.0
2019-Jul-20 06:52 029 1 gusting 4 20.0
2019-Jul-20 06:42 054 0 gusting 3 19.4
2019-Jul-20 06:32 012 0 gusting 3 18.9
2019-Jul-20 06:22 045 18.9
2019-Jul-20 06:12 076 18.3
2019-Jul-20 06:02 032 18.3
2019-Jul-20 05:52 032 18.3
2019-Jul-20 05:42 032 18.3
2019-Jul-20 05:32 032 18.3
2019-Jul-20 05:22 032 18.3
2019-Jul-20 05:12 025 17.8
2019-Jul-20 05:02 275 17.8
2019-Jul-20 04:52 275 17.2
2019-Jul-20 04:42 275 16.7
2019-Jul-20 04:32 275 16.1
2019-Jul-20 04:22 275 16.1
2019-Jul-20 04:12 270 0 gusting 0 15.6
2019-Jul-20 04:02 279 0 gusting 1 15.6
2019-Jul-20 03:52 022 15.0
2019-Jul-20 03:42 022 14.4
2019-Jul-20 03:32 341 13.9
2019-Jul-20 03:22 341 13.9
2019-Jul-20 03:12 341 13.9
2019-Jul-20 03:02 341 13.3
2019-Jul-20 02:52 341 13.3
2019-Jul-20 02:42 341 13.3
2019-Jul-20 02:32 341 13.3
2019-Jul-20 02:22 341 13.9
2019-Jul-20 02:11 341 13.9
2019-Jul-20 02:01 341 13.9
2019-Jul-20 01:51 341 13.9
2019-Jul-20 01:41 341 13.9
2019-Jul-20 01:31 341 13.9
2019-Jul-20 01:21 341 13.9
2019-Jul-20 01:11 341 14.4
2019-Jul-20 01:01 341 14.4
2019-Jul-20 00:51 341 14.4
2019-Jul-20 00:41 341 14.4
2019-Jul-20 00:31 341 14.4
2019-Jul-20 00:21 341 15.0
2019-Jul-20 00:11 341 15.0
2019-Jul-20 00:01 341 15.0
2019-Jul-19 23:51 341 15.0
2019-Jul-19 23:41 355 15.6
2019-Jul-19 23:31 355 15.6
2019-Jul-19 23:21 333 15.6
2019-Jul-19 23:11 288 0 gusting 2 15.6
2019-Jul-19 23:01 296 15.6
2019-Jul-19 22:51 296 15.6
2019-Jul-19 22:41 296 16.1
2019-Jul-19 22:31 296 16.1
2019-Jul-19 22:21 296 16.1
2019-Jul-19 22:11 296 16.1
2019-Jul-19 22:01 296 16.1
2019-Jul-19 21:51 296 16.7
2019-Jul-19 21:41 339 16.7
2019-Jul-19 21:31 323 16.7
2019-Jul-19 21:21 272 16.7
2019-Jul-19 21:11 268 17.2
2019-Jul-19 21:01 268 17.2
2019-Jul-19 20:51 268 17.2
2019-Jul-19 20:41 287 17.2
2019-Jul-19 20:31 325 17.2
2019-Jul-19 20:21 269 17.2
2019-Jul-19 20:11 269 17.8
2019-Jul-19 20:01 355 17.8
2019-Jul-19 19:51 355 17.8
2019-Jul-19 19:41 355 18.3
2019-Jul-19 19:31 355 18.3
2019-Jul-19 19:21 355 18.9
2019-Jul-19 19:11 355 19.4
2019-Jul-19 19:01 355 19.4
2019-Jul-19 18:51 355 20.0
2019-Jul-19 18:41 355 20.0
2019-Jul-19 18:31 355 20.6
2019-Jul-19 18:21 355 20.6
2019-Jul-19 18:11 355 20.6
2019-Jul-19 18:01 337 21.1
2019-Jul-19 17:51 254 0 gusting 2 21.1
2019-Jul-19 17:40 069 2 gusting 6 21.1
2019-Jul-19 17:30 020 1 gusting 5 21.7
2019-Jul-19 17:20 012 1 gusting 6 21.7
2019-Jul-19 17:10 351 1 gusting 6 21.7
2019-Jul-19 17:00 005 3 gusting 9 21.7
2019-Jul-19 16:50 015 0 gusting 6 21.7
2019-Jul-19 16:40 036 2 gusting 9 21.7
2019-Jul-19 16:30 004 1 gusting 6 21.7
2019-Jul-19 16:20 034 2 gusting 7 21.7
2019-Jul-19 16:10 353 1 gusting 8 21.7
2019-Jul-19 16:00 092 4 gusting 9 21.7
2019-Jul-19 15:50 327 1 gusting 10 22.2
2019-Jul-19 15:40 341 3 gusting 9 22.2
2019-Jul-19 15:30 062 3 gusting 11 22.2
2019-Jul-19 15:20 024 5 gusting 10 22.2
2019-Jul-19 15:10 051 3 gusting 12 22.2
2019-Jul-19 15:00 006 6 gusting 12 22.2
2019-Jul-19 14:50 335 4 gusting 7 22.2
2019-Jul-19 14:40 336 3 gusting 13 22.2
2019-Jul-19 14:30 359 6 gusting 10 22.2
2019-Jul-19 14:20 001 3 gusting 13 22.2
2019-Jul-19 14:10 022 4 gusting 11 22.2
2019-Jul-19 14:00 009 3 gusting 7 22.2
2019-Jul-19 13:50 013 4 gusting 11 21.7
2019-Jul-19 13:40 022 3 gusting 12 21.7
2019-Jul-19 13:30 012 4 gusting 11 21.7
2019-Jul-19 13:20 278 1 gusting 6 21.7
2019-Jul-19 13:10 064 4 gusting 10 21.7
2019-Jul-19 13:00 003 21.7
2019-Jul-19 12:50 290 2 gusting 7 21.7
2019-Jul-19 12:40 335 4 gusting 9 21.7
2019-Jul-19 12:30 158 0 gusting 8 21.7
2019-Jul-19 12:20 002 5 gusting 12 21.7
2019-Jul-19 12:10 065 3 gusting 8 21.7
2019-Jul-19 12:00 020 5 gusting 11 21.7
2019-Jul-19 11:50 359 3 gusting 10 21.7
2019-Jul-19 11:40 315 4 gusting 12 21.7
2019-Jul-19 11:30 012 6 gusting 10 21.7
2019-Jul-19 11:20 015 4 gusting 15 21.7
2019-Jul-19 11:10 300 1 gusting 7 21.1
2019-Jul-19 11:00 032 4 gusting 9 21.1
2019-Jul-19 10:50 006 5 gusting 12 21.1
2019-Jul-19 10:40 043 3 gusting 9 21.1
2019-Jul-19 10:30 034 4 gusting 9 21.1
2019-Jul-19 10:20 355 4 gusting 13 21.1
2019-Jul-19 10:10 353 4 gusting 10 20.6
2019-Jul-19 10:00 20.6
2019-Jul-19 09:50 010 2 gusting 7 20.6
2019-Jul-19 09:40 056 5 gusting 10 20.6
2019-Jul-19 09:30 008 6 gusting 10 20.6
2019-Jul-19 09:20 003 7 gusting 13 20.6
2019-Jul-19 09:10 039 6 gusting 12 20.6
2019-Jul-19 09:00 008 6 gusting 11 20.6
2019-Jul-19 08:50 357 4 gusting 8 20.6
2019-Jul-19 08:39 016 5 gusting 12 20.6
2019-Jul-19 08:29 008 4 gusting 10 20.6
2019-Jul-19 08:19 069 1 gusting 9 20.6
2019-Jul-19 08:09 326 4 gusting 9 20.6
2019-Jul-19 07:59 343 2 gusting 11 20.6
2019-Jul-19 07:49 010 3 gusting 9 20.6
2019-Jul-19 07:39 007 2 gusting 7 20.0
2019-Jul-19 07:29 347 2 gusting 7 20.0
2019-Jul-19 07:19 002 6 gusting 10 19.4
2019-Jul-19 07:09 009 3 gusting 9 19.4
2019-Jul-19 06:59 356 3 gusting 9 18.9
2019-Jul-19 06:49 349 3 gusting 8 18.9
2019-Jul-19 06:39 336 18.3
2019-Jul-19 06:29 060 3 gusting 12 18.3
2019-Jul-19 06:19 312 0 gusting 7 17.8
2019-Jul-19 06:09 019 2 gusting 6 17.8
2019-Jul-19 05:59 036 3 gusting 8 17.2
2019-Jul-19 05:49 001 1 gusting 6 17.2
2019-Jul-19 05:39 338 1 gusting 6 16.7
2019-Jul-19 05:29 332 0 gusting 5 16.7
2019-Jul-19 05:19 321 1 gusting 5 16.7
2019-Jul-19 05:09 320 2 gusting 5 16.1
2019-Jul-19 04:59 244 16.1
2019-Jul-19 04:49 332 1 gusting 6 16.1
2019-Jul-19 04:39 310 15.6
2019-Jul-19 04:29 296 15.6
2019-Jul-19 04:19 322 0 gusting 4 15.0
2019-Jul-19 04:09 334 0 gusting 3 15.0
2019-Jul-19 03:59 285 14.4
2019-Jul-19 03:49 287 14.4
2019-Jul-19 03:39 016 1 gusting 4 13.9
2019-Jul-19 03:29 272 13.3
2019-Jul-19 03:19 022 13.3
2019-Jul-19 03:09 293 12.8
2019-Jul-19 02:59 301 0 gusting 3 12.8
2019-Jul-19 02:49 345 0 gusting 3 12.8
2019-Jul-19 02:39 012 12.8
2019-Jul-19 02:29 012 12.2
2019-Jul-19 02:19 012 12.8
2019-Jul-19 02:09 012 12.8
2019-Jul-19 01:59 012 12.8
2019-Jul-19 01:49 012 12.8
2019-Jul-19 01:39 012 12.8
2019-Jul-19 01:29 012 12.8
2019-Jul-19 01:19 012 12.8
2019-Jul-19 01:09 012 12.8
2019-Jul-19 00:59 012 12.8
2019-Jul-19 00:49 012 13.3
2019-Jul-19 00:39 012 13.3
2019-Jul-19 00:29 334 13.3
2019-Jul-19 00:19 330 13.3
2019-Jul-19 00:09 289 13.9
2019-Jul-18 23:59 327 13.9
2019-Jul-18 23:49 327 13.9
2019-Jul-18 23:38 307 13.9
2019-Jul-18 23:28 307 13.9
2019-Jul-18 23:18 354 13.9
2019-Jul-18 23:08 354 14.4
2019-Jul-18 22:58 358 14.4
2019-Jul-18 22:48 358 14.4
2019-Jul-18 22:38 004 15.0
2019-Jul-18 22:28 193 15.0
2019-Jul-18 22:18 193 15.0
2019-Jul-18 22:08 306 15.0